Location: Mahannah Oil Field
(37.4664°N, 96.6003°W)
Time: 04:51:52
(UTC+00:00)

Courier 1B Rocket - Pass Details

Date: 26 January 2021
Orbit: 920 x 1202 km, 28.3° (Epoch: 05 March)

Event Time Altitude Azimuth Distance (km) Brightness Sun altitude
Exits shadow 10:52:32 15° 177° (S) 2,347 7.0 -32.1°
Maximum altitude 10:54:37 17° 155° (SSE) 2,233 7.1 -31.7°
Drops below altitude 10° 10:58:43 10° 117° (ESE) 2,768 8.1 -30.8°
Sets 11:02:29 0° 98° (E) 3,779 9.3 -30.1°
